| time (UTC) | temp C | wind direction | speed KPH | gust KPH | rain 1hr cm | rain 24hr cm | rain mn cm | humidity % | barometer mb |
| 20260504030016 | -17 | 250 | 0.0 | 0.0 | 0.00 | 0.00 | 0.00 | 1010.6 | |
| 20260504024546 | -17 | 250 | 0.0 | 0.0 | 0.00 | 0.00 | 0.00 | 1010.7 | |
| 20260504023038 | -17 | 250 | 0.0 | 0.0 | 0.00 | 0.00 | 0.00 | 1010.9 | |
| 20260504021531 | -17 | 250 | 0.0 | 0.0 | 0.00 | 0.00 | 0.00 | 1010.8 | |
| 20260504020027 | -17 | 250 | 0.0 | 0.0 | 0.00 | 0.00 | 0.00 | 1010.8 | |
| 20260504014526 | -17 | 250 | 0.0 | 0.0 | 0.00 | 0.00 | 0.00 | 1010.9 | |
| 20260504013019 | -17 | 250 | 0.0 | 0.0 | 0.00 | 0.00 | 0.00 | 1010.7 | |
| 20260504011511 | -17 | 250 | 0.0 | 0.0 | 0.00 | 0.00 | 0.00 | 1010.6 | |
| 20260504010007 | -17 | 250 | 0.0 | 0.0 | 0.00 | 0.00 | 0.00 | 1010.6 | |
| 20260504004503 | -17 | 234 | 0.0 | 0.0 | 0.00 | 0.00 | 0.00 | 1010.6 | |
| 20260504003107 | -17 | 103 | 0.0 | 0.0 | 0.00 | 0.00 | 0.00 | 1010.4 | |
| 20260504001605 | -17 | 232 | 0.0 | 0.0 | 0.00 | 0.00 | 0.00 | 1010.5 | |
| 20260504000101 | -17 | 278 | 0.0 | 0.0 | 0.00 | 0.00 | 0.00 | 1010.5 | |
| 20260503234543 | -17 | 247 | 0.0 | 0.0 | 0.00 | 0.00 | 0.00 | 1010.5 | |
| 20260503233042 | -17 | 246 | 0.0 | 0.0 | 0.00 | 0.00 | 0.00 | 1010.5 | |
| 20260503231532 | -17 | 227 | 0.0 | 0.0 | 0.00 | 0.00 | 0.00 | 1010.5 | |
| 20260503230028 | -17 | 294 | 0.0 | 0.0 | 0.00 | 0.00 | 0.00 | 1010.5 | |
| 20260503224524 | -17 | 303 | 0.0 | 0.0 | 0.00 | 0.00 | 0.00 | 1010.6 | |
| 20260503223019 | -17 | 221 | 0.0 | 4.8 | 0.00 | 0.00 | 0.00 | 1010.6 | |
| 20260503221514 | -17 | 209 | 0.0 | 0.0 | 0.00 | 0.00 | 0.00 | 1010.6 | |
| 20260503220041 | -17 | 239 | 0.0 | 1.6 | 0.00 | 0.00 | 0.00 | 1010.5 | |
| 20260503214536 | -17 | 287 | 0.0 | 1.6 | 0.00 | 0.00 | 0.00 | 1010.6 | |
| 20260503213002 | -17 | 242 | 0.0 | 3.2 | 0.00 | 0.00 | 0.00 | 1010.4 | |
| 20260503211558 | -17 | 311 | 0.0 | 1.6 | 0.00 | 0.00 | 0.00 | 1010.5 | |
| 20260503210051 | -17 | 288 | 0.0 | 1.6 | 0.00 | 0.00 | 0.00 | 1010.7 | |
| 20260503204547 | -17 | 288 | 0.0 | 3.2 | 0.00 | 0.00 | 0.00 | 1010.7 | |
| 20260503203044 | -17 | 297 | 0.0 | 3.2 | 0.00 | 0.00 | 0.00 | 1010.9 | |
| 20260503201539 | -17 | 262 | 0.0 | 0.0 | 0.00 | 0.00 | 0.00 | 1011.0 | |
| 20260503200008 | -17 | 227 | 0.0 | 1.6 | 0.00 | 0.00 | 0.00 | 1011.2 | |
| 20260503194502 | -17 | 265 | 0.0 | 3.2 | 0.00 | 0.00 | 0.00 | 1011.5 | |
| 20260503193107 | -17 | 265 | 0.0 | 0.0 | 0.00 | 0.00 | 0.00 | 1011.7 | |
| 20260503191549 | -17 | 265 | 0.0 | 3.2 | 0.00 | 0.00 | 0.00 | 1012.0 | |
| 20260503190046 | -17 | 227 | 0.0 | 0.0 | 0.00 | 0.00 | 0.00 | 1012.1 | |
| 20260503184540 | -17 | 244 | 0.0 | 1.6 | 0.00 | 0.00 | 0.00 | 1012.2 | |
| 20260503183043 | -17 | 304 | 0.0 | 0.0 | 0.00 | 0.03 | 0.00 | 1012.4 | |
| 20260503181529 | -17 | 274 | 0.0 | 6.4 | 0.00 | 0.03 | 0.00 | 1012.8 | |
| 20260503180027 | -17 | 274 | 0.0 | 1.6 | 0.00 | 0.03 | 0.00 | 1012.8 | |
| 20260503174528 | -17 | 203 | 0.0 | 0.0 | 0.00 | 0.03 | 0.00 | 1013.0 | |
| 20260503173054 | -17 | 280 | 0.0 | 0.0 | 0.00 | 0.03 | 0.00 | 1013.2 | |
| 20260503171542 | -17 | 284 | 0.0 | 0.0 | 0.00 | 0.03 | 0.00 | 1013.2 | |
| 20260503090115 | -17 | 360 | 0.0 | 0.0 | 0.00 | 0.03 | 0.00 | 1013.4 | |
| 20260503081548 | -17 | 360 | 0.0 | 0.0 | 0.00 | 0.03 | 0.00 | 1013.4 | |
| 20260503071533 | -17 | 360 | 0.0 | 0.0 | 0.00 | 0.03 | 0.00 | 1013.2 | |
| 20260503054537 | -17 | 360 | 0.0 | 0.0 | 0.00 | 0.03 | 0.00 | 1013.3 | |
| 20260503053024 | -17 | 360 | 0.0 | 0.0 | 0.00 | 0.03 | 0.00 | 1013.5 | |
| 20260503051525 | -17 | 360 | 0.0 | 0.0 | 0.00 | 0.03 | 0.00 | 1013.5 | |
| 20260503050018 | -17 | 360 | 0.0 | 0.0 | 0.00 | 0.03 | 0.00 | 1013.5 | |
| 20260503044509 | -17 | 360 | 0.0 | 0.0 | 0.00 | 0.03 | 0.00 | 1013.6 | |
| 20260503043006 | -17 | 360 | 0.0 | 0.0 | 0.00 | 0.03 | 0.00 | 1013.7 | |
| 20260503041531 | -17 | 360 | 0.0 | 0.0 | 0.00 | 0.03 | 0.00 | 1013.7 | |
| 20260503040029 | -17 | 360 | 0.0 | 0.0 | 0.00 | 0.03 | 0.00 | 1013.7 | |
| 20260503034520 | -17 | 360 | 0.0 | 0.0 | 0.00 | 0.03 | 0.00 | 1013.7 | |
| 20260503033018 | -17 | 360 | 0.0 | 0.0 | 0.00 | 0.03 | 0.03 | 1013.6 | |
| 20260503031516 | -17 | 360 | 0.0 | 0.0 | 0.00 | 0.03 | 0.03 | 1013.7 |